Montague, CA

8:04 AM PST on February 27, 2017 (GMT -0800)
Siskiyou County

Weather History for KSIY - March, 2014

Change the Weather History Date:

Monday, March 10, 2014

  Actual Average Record
Temperature  
Mean Temperature 42 °F 43 °F  
Max Temperature 50 °F 56 °F 70 °F (2004)
Min Temperature 33 °F 30 °F 15 °F (1951)
Degree Days  
Heating Degree Days 23 22  
Month to date heating degree days 169 225  
Since 1 July heating degree days 4217 4102  
Cooling Degree Days 0 0  
Month to date cooling degree days 0 0  
Year to date cooling degree days 0 0  
Moisture  
Dew Point 36 °F    
Average Humidity 74    
Maximum Humidity 93    
Minimum Humidity 53    
Precipitation  
Precipitation 0.11 in 0.06 in 0.45 in (2011)
Month to date precipitation 1.69 0.82  
Year to date precipitation 4.13 5.03  
Sea Level Pressure  
Sea Level Pressure 30.26 in    
Wind  
Wind Speed 9 mph (NNW)    
Max Wind Speed 25 mph    
Max Gust Speed 30 mph    
Visibility 10 miles    
Events Rain    
T = Trace of Precipitation, MM = Missing Value Source: NWS Daily Summary

Daily Weather History Graph

Daily Weather History Graph

Search for Another Location

Airport or City:

Trip Planner

Search our weather history database for the weather conditions in past years. The results will help you decide how hot, cold, wet, or windy it might be!

Date:

Astronomy

Mar. 10, 2014 Rise Set
Actual Time 7:29 AM PDT 7:10 PM PDT
Civil Twilight 7:02 AM PDT 7:38 PM PDT
Nautical Twilight 6:30 AM PDT 8:10 PM PDT
Astronomical Twilight 5:57 AM PDT 8:43 PM PDT
Moon 1:55 PM PDT (3/10) 3:49 AM PDT (3/10)
Length of Visible Light 12h 36m
Length of Day
11h 41m
Waxing Gibbous, 71% of the Moon is Illuminated
Mar 10
Waxing Gibbous
Mar 16
Full
Mar 23
Last Quarter
Mar 30
New
Apr 7
First Quarter

Hourly Weather History & Observations

Time (PDT) Temp. Windchill Dew Point Humidity Pressure Visibility Wind Dir Wind Speed Gust Speed Precip Events Conditions
12:08 AM 46.9 °F - 45.0 °F 93% 30.03 in 5.0 mi Calm Calm - 0.02 in Rain Light Rain
12:53 AM 46.9 °F - 45.0 °F 93% 30.07 in 5.0 mi Calm Calm - 0.09 in Rain Rain
1:10 AM 46.9 °F - 41.0 °F 80% 30.06 in 8.0 mi WNW 19.6 mph - 0.02 in Rain Light Rain
1:53 AM 46.0 °F 40.6 °F 37.9 °F 73% 30.10 in 10.0 mi WNW 11.5 mph - 0.06 in Rain Light Rain
2:53 AM 45.0 °F 43.5 °F 39.0 °F 80% 30.12 in 10.0 mi East 3.5 mph - 0.01 in Rain Light Rain
3:53 AM 44.1 °F 39.5 °F 39.9 °F 85% 30.11 in 10.0 mi SE 8.1 mph - 0.02 in Rain Light Rain
4:40 AM 43.0 °F 39.5 °F 39.0 °F 86% 30.08 in 10.0 mi SE 5.8 mph - 0.01 in   Overcast
4:53 AM 44.1 °F - 37.9 °F 79% 30.11 in 10.0 mi Calm Calm - 0.01 in   Mostly Cloudy
5:53 AM 42.1 °F - 39.9 °F 92% 30.13 in 10.0 mi Calm Calm - N/A   Scattered Clouds
6:53 AM 42.1 °F 37.1 °F 35.1 °F 76% 30.15 in 10.0 mi West 8.1 mph - N/A   Scattered Clouds
7:53 AM 43.0 °F 36.8 °F 36.0 °F 76% 30.18 in 10.0 mi West 11.5 mph - N/A   Overcast
8:53 AM 44.1 °F 39.0 °F 37.0 °F 76% 30.22 in 10.0 mi SW 9.2 mph - N/A   Mostly Cloudy
9:53 AM 44.1 °F 39.0 °F 36.0 °F 73% 30.26 in 10.0 mi WSW 9.2 mph - N/A   Mostly Cloudy
10:53 AM 46.9 °F - 37.0 °F 68% 30.27 in 10.0 mi West 10.4 mph - N/A   Overcast
11:53 AM 44.1 °F 36.8 °F 37.9 °F 79% 30.30 in 10.0 mi NNE 16.1 mph 19.6 mph N/A   Mostly Cloudy
12:08 PM 42.1 °F 34.2 °F 36.0 °F 79% 30.28 in 10.0 mi North 16.1 mph 27.6 mph 0.00 in Rain Light Rain
12:53 PM 45.0 °F 40.6 °F 37.0 °F 74% 30.32 in 10.0 mi North 8.1 mph - 0.02 in   Mostly Cloudy
1:53 PM 45.0 °F 43.5 °F 33.1 °F 63% 30.32 in 10.0 mi NNW 3.5 mph - 0.00 in Rain Light Rain
2:53 PM 44.1 °F 39.5 °F 33.1 °F 65% 30.34 in 9.0 mi NE 8.1 mph - 0.00 in Rain Light Rain
3:53 PM 46.0 °F 39.0 °F 36.0 °F 68% 30.35 in 10.0 mi NNW 17.3 mph 29.9 mph 0.00 in Rain Light Rain
4:53 PM 48.0 °F - 32.0 °F 54% 30.36 in 10.0 mi NNE 11.5 mph - 0.00 in   Mostly Cloudy
5:53 PM 46.9 °F - 30.0 °F 52% 30.37 in 10.0 mi North 12.7 mph - N/A   Overcast
6:53 PM 45.0 °F 38.5 °F 30.9 °F 58% 30.39 in 10.0 mi North 13.8 mph - N/A   Clear
7:53 PM 42.1 °F 35.2 °F 30.0 °F 62% 30.41 in 10.0 mi NNE 12.7 mph - N/A   Clear
8:53 PM 41.0 °F 33.9 °F 30.0 °F 65% 30.43 in 10.0 mi North 12.7 mph - N/A   Clear
9:53 PM 41.0 °F 33.9 °F 28.9 °F 62% 30.45 in 10.0 mi NNW 12.7 mph - N/A   Clear
10:53 PM 37.0 °F 31.6 °F 30.0 °F 76% 30.47 in 10.0 mi NNE 6.9 mph - N/A   Clear
11:53 PM 37.0 °F 34.5 °F 28.9 °F 73% 30.49 in 10.0 mi NNE 3.5 mph - N/A   Clear